Home > Time Zones > World Clock > Weather > Fiji > Nadi > Past weeks

Flag for Fiji Weather past 2 weeks in Nadi, Fiji

Now
77 °F

Passing clouds.


Feels Like: 78 °F
Forecast: 79 / 89 °F
Wind: 5 mph from Southeast

Location: Nandi

Current Time: Jan 31, 2015 at 4:23:04 AM

Latest Report: Jan 31, 2015 at 4:00 AM


Visibility: N/A

Pressure: 29.62 "Hg

Humidity: 94%

Dew point: 75 °F

Location of NadiLocation

Historic Weather in Nadi — Graph

°F

Nadi temperature yesterday

Maximum temperature yesterday: 88 °F (at 10:00 AM)
Minimum temperature yesterday: 75 °F (at 2:00 AM)
Average temperature yesterday: 82 °F

Past Weeks' High & Low Weather Summary

 TemperatureHumidityPressure
High90 °F (Jan 21, 10:00 AM)100% (Jan 16, 11:00 AM)29.89 "Hg (Jan 16, 11:00 AM)
Low72 °F (Jan 27, 5:00 AM)55% (Jan 25, 3:00 PM)29.53 "Hg (Jan 27, 3:00 PM)
Average81 °F83%29.74 "Hg
* Reported Jan 16 4:00 AM — Jan 31 3:00 AM, Nadi, Weather by CustomWeather, © 2014

Note: Actual official high and low records may vary slightly from our data, if they occured in-between our weather recording intervals... More about our weather records

Advertising

Nadi weather history for previous 24 hours

 ConditionsComfort  
Time TempWeatherWind HumidityBarometerVisibility
3:00 AM
Jan 31
79 °FPassing clouds.5 mph89%29.62 "HgN/A
2:00 AM79 °FPassing clouds.3 mph89%29.62 "HgN/A
1:00 AM81 °FPassing clouds.5 mph89%29.65 "HgN/A
12:00 AM81 °FPartly cloudy.6 mph89%29.68 "HgN/A
11:00 PM
Jan 30
81 °FPartly cloudy.5 mph89%29.71 "HgN/A
10:00 PM82 °FPartly cloudy.5 mph84%29.68 "HgN/A
9:00 PM84 °FPartly cloudy.5 mph74%29.65 "HgN/A
8:00 PM82 °FPassing clouds.5 mph84%29.65 "HgN/A
7:00 PM84 °FPassing clouds.8 mph79%29.62 "HgN/A
6:00 PM84 °FScattered clouds.9 mph74%29.59 "HgN/A
5:00 PM86 °FScattered clouds.12 mph75%29.56 "HgN/A
4:00 PM86 °FPassing clouds.12 mph75%29.59 "HgN/A
3:00 PM88 °FPassing clouds.13 mph70%29.59 "HgN/A
2:00 PM86 °FPassing clouds.12 mph70%29.62 "HgN/A
1:00 PM88 °FPassing clouds.9 mph70%29.62 "HgN/A
12:00 PM86 °FPassing clouds.10 mph70%29.65 "HgN/A
11:00 AM86 °FPassing clouds.10 mph70%29.65 "HgN/A
10:00 AM88 °FPassing clouds.No wind62%29.68 "HgN/A
9:00 AM84 °FPassing clouds.7 mph66%29.68 "HgN/A
8:00 AM81 °FPassing clouds.8 mph74%29.68 "HgN/A
7:00 AM77 °FPassing clouds.8 mph89%29.65 "HgN/A
6:00 AM75 °FScattered clouds.6 mph94%29.65 "HgN/A
5:00 AM75 °FPassing clouds.6 mph94%29.62 "HgN/A
4:00 AM75 °FPassing clouds.6 mph94%29.62 "HgN/A
Weather by CustomWeather, © 2014

See weather overviewHow to use our weather pages